星链-35160(STARLINK-35160)

导读 | 豆包AI

STARLINK-35160是由美国于2025年10月8日发射的星链系列卫星,星链是SpaceX打造的全球卫星互联网星座项目,这类低轨卫星可在近地轨道提供高速互联网接入服务,覆盖偏远地区,补充地面通信网络不足,同时也持续拓展全球卫星互联网服务覆盖范围,服务更多用户。

基本信息
目录编号:
65911
目录名称:
STARLINK-35160
国际标识:
2025-225B
轨道中心:
EARTH
卫星名称:
星链-35160
卫星全名:
星链-35160(STARLINK-35160)
卫星状态:
在轨 (已飞行157 天)
发射日期:
2025-10-08 UTC
国别 :
美国 (US)
星等 :
--
轨道信息
数据来源 国际轨道数据
星历时间: 2026-03-14T06:21:45+0800
10小时前
查看轨道信息
半长轴: 6853.252km
偏心率: 0.0001742
轨道倾角: 53.159°
近地点辐角 56.478°
升交点赤经 146.255°
平近点角 303.639°
近地点: 473.921km
远地点: 476.309km
周期: 94.103分钟
每日圈数: 15.302336
详细信息
固有亮度:
5
最大亮度:
2.5
卫星平台:
Starlink V1.0
覆盖范围:
全球
运营商:
太空探索技术公司
运营商所在国:
美国
制造商(研发单位):
太空探索技术公司
制造商所在国:
美国
使用方式:
暂无
卫星简介
Starlink 计划是 SpaceX 推出的全球卫星互联网项目,通过发射低轨道卫星,为全球尤其是偏远地区提供高速、低延迟的互联网服务。自 2019 年起,Starlink 已部署数千颗卫星,旨在缩小全球数字鸿沟,推动互联网普及。该项目还为军事、航空等行业提供通信支持,带来广泛经济效益。
2D轨道图
3D轨道图
轨道高度分析图
轨道倾角分析图
轨道综合分析图
查看轨道综合分析图